CAL105 MMMY-MMGL

Flight info

Callsign CAL105
Flight time 1h 4m
Altitude 32000
Route KERG1A/12 KERGA UT44 MEZCA
Aircraft B77W/H-SDE1E2E3FGHIJ2J3J4J5M1RWXY/LB1D1

Departure

Time 2026-04-22 02:47
Airport Monterrey International Airport (MMMY)

Arrival

Time 2026-04-22 03:51
Airport Guadalajara International Airport (MMGL)
Time Latitude Longitude Altitude Speed Heading
2026-04-22 01:43 25.77537 -100.11033 1279 ft 0 kts 255°
2026-04-22 02:31 25.77540 -100.11021 1279 ft 2 kts 255°
2026-04-22 02:31 25.77543 -100.11005 1279 ft 2 kts 268°
2026-04-22 02:31 25.77541 -100.10989 1278 ft 2 kts 291°
2026-04-22 02:32 25.77535 -100.10974 1278 ft 2 kts 309°
2026-04-22 02:32 25.77524 -100.10963 1278 ft 2 kts 328°
2026-04-22 02:32 25.77512 -100.10957 1278 ft 0 kts 345°
2026-04-22 02:32 25.77507 -100.10955 1278 ft 0 kts 347°
2026-04-22 02:34 25.77508 -100.10955 1278 ft 0 kts 347°
2026-04-22 02:39 25.77518 -100.10958 1278 ft 2 kts 345°
2026-04-22 02:39 25.77543 -100.10966 1278 ft 4 kts 345°
2026-04-22 02:39 25.77582 -100.10977 1278 ft 6 kts 345°
2026-04-22 02:39 25.77622 -100.10995 1278 ft 6 kts 330°
2026-04-22 02:40 25.77651 -100.11029 1279 ft 6 kts 302°
2026-04-22 02:40 25.77678 -100.11069 1280 ft 6 kts 313°
2026-04-22 02:40 25.77713 -100.11107 1281 ft 7 kts 318°
2026-04-22 02:40 25.77762 -100.11131 1281 ft 8 kts 347°
2026-04-22 02:41 25.77818 -100.11121 1281 ft 2 kts 25°
2026-04-22 02:41 25.77841 -100.11111 1281 ft 4 kts
2026-04-22 02:41 25.77874 -100.11134 1281 ft 7 kts 307°
2026-04-22 02:41 25.77906 -100.11192 1283 ft 10 kts 301°
2026-04-22 02:42 25.77950 -100.11272 1286 ft 13 kts 301°
2026-04-22 02:42 25.78002 -100.11368 1289 ft 15 kts 301°
2026-04-22 02:42 25.78058 -100.11468 1290 ft 14 kts 301°
2026-04-22 02:42 25.78105 -100.11556 1292 ft 11 kts 301°
2026-04-22 02:43 25.78143 -100.11625 1294 ft 9 kts 301°
2026-04-22 02:43 25.78176 -100.11685 1295 ft 9 kts 301°
2026-04-22 02:43 25.78212 -100.11749 1296 ft 10 kts 301°
2026-04-22 02:43 25.78233 -100.11789 1296 ft 3 kts 301°
2026-04-22 02:44 25.78259 -100.11805 1296 ft 6 kts
2026-04-22 02:44 25.78297 -100.11788 1295 ft 0 kts 28°
2026-04-22 02:44 25.78307 -100.11781 1295 ft 4 kts 30°
2026-04-22 02:44 25.78352 -100.11752 1293 ft 10 kts 31°
2026-04-22 02:45 25.78381 -100.11732 1293 ft 2 kts 31°
2026-04-22 02:45 25.78396 -100.11706 1293 ft 5 kts 86°
2026-04-22 02:45 25.78377 -100.11656 1292 ft 0 kts 121°
2026-04-22 02:46 25.78373 -100.11649 1291 ft 7 kts 121°
2026-04-22 02:47 25.78233 -100.11391 1286 ft 76 kts 121°
2026-04-22 02:47 25.77834 -100.10664 1272 ft 143 kts 121°
2026-04-22 02:47 25.77226 -100.09541 1464 ft 181 kts 120°
2026-04-22 02:47 25.76584 -100.08383 2192 ft 184 kts 121°
2026-04-22 02:48 25.75913 -100.07165 2875 ft 189 kts 121°
2026-04-22 02:48 25.75204 -100.05872 3285 ft 205 kts 121°
2026-04-22 02:48 25.74432 -100.04472 3737 ft 221 kts 121°
2026-04-22 02:48 25.73603 -100.02963 4221 ft 237 kts 121°
2026-04-22 02:49 25.72727 -100.01377 4700 ft 252 kts 121°
2026-04-22 02:49 25.71788 -99.99674 5276 ft 264 kts 121°
2026-04-22 02:49 25.70641 -99.98061 6006 ft 270 kts 140°
2026-04-22 02:49 25.68986 -99.97126 6720 ft 276 kts 166°
2026-04-22 02:50 25.67068 -99.96990 7476 ft 279 kts 180°
2026-04-22 02:50 25.65119 -99.97072 8244 ft 282 kts 181°
2026-04-22 02:50 25.63143 -99.97170 8994 ft 285 kts 181°
2026-04-22 02:50 25.61155 -99.97271 9722 ft 288 kts 181°
2026-04-22 02:51 25.59129 -99.97372 10366 ft 295 kts 181°
2026-04-22 02:51 25.57026 -99.97475 10753 ft 312 kts 181°
2026-04-22 02:51 25.54798 -99.97585 11161 ft 328 kts 181°
2026-04-22 02:51 25.52458 -99.97700 11608 ft 344 kts 181°
2026-04-22 02:52 25.50022 -99.97822 12088 ft 360 kts 181°
2026-04-22 02:52 25.47470 -99.97948 12647 ft 373 kts 181°
2026-04-22 02:52 25.44843 -99.98079 13450 ft 381 kts 181°
2026-04-22 02:52 25.42182 -99.98212 14378 ft 386 kts 181°
2026-04-22 02:53 25.39478 -99.98346 15354 ft 392 kts 181°
2026-04-22 02:53 25.36749 -99.98482 16345 ft 397 kts 181°
2026-04-22 02:53 25.33979 -99.98618 17305 ft 402 kts 181°
2026-04-22 02:53 25.31163 -99.98750 18236 ft 407 kts 181°
2026-04-22 02:54 25.28320 -99.98883 19164 ft 412 kts 181°
2026-04-22 02:54 25.25464 -99.99017 20060 ft 417 kts 181°
2026-04-22 02:54 25.22756 -99.99143 21311 ft 422 kts 182°
2026-04-22 02:54 25.19780 -99.99283 22148 ft 428 kts 182°
2026-04-22 02:55 25.16811 -99.99422 22936 ft 433 kts 182°
2026-04-22 02:55 25.13768 -99.99564 23711 ft 439 kts 182°
2026-04-22 02:55 25.10723 -99.99708 24427 ft 444 kts 182°
2026-04-22 02:55 25.07606 -99.99853 24925 ft 449 kts 184°
2026-04-22 02:56 25.04462 -100.00000 25416 ft 454 kts 185°
2026-04-22 02:56 25.01290 -100.00149 25953 ft 457 kts 187°
2026-04-22 02:56 24.98123 -100.00360 26531 ft 457 kts 192°
2026-04-22 02:56 24.95007 -100.01030 27212 ft 455 kts 201°
2026-04-22 02:57 24.92060 -100.02212 27883 ft 453 kts 210°
2026-04-22 02:57 24.89267 -100.03861 28513 ft 454 kts 216°
2026-04-22 02:57 24.86568 -100.05625 29268 ft 456 kts 216°
2026-04-22 02:57 24.83837 -100.07418 30067 ft 457 kts 216°
2026-04-22 02:58 24.81094 -100.09214 30986 ft 454 kts 216°
2026-04-22 02:58 24.78407 -100.10970 31904 ft 448 kts 216°
2026-04-22 02:58 24.75731 -100.12718 32287 ft 447 kts 216°
2026-04-22 02:59 24.70397 -100.16197 32325 ft 443 kts 217°
2026-04-22 02:59 24.65087 -100.19656 32336 ft 444 kts 217°
2026-04-22 03:00 24.59796 -100.23098 32332 ft 443 kts 216°
2026-04-22 03:00 24.54483 -100.26549 32334 ft 443 kts 216°
2026-04-22 03:01 24.49136 -100.30019 32338 ft 443 kts 216°
2026-04-22 03:01 24.43802 -100.33478 32344 ft 451 kts 216°
2026-04-22 03:02 24.38284 -100.37054 32339 ft 460 kts 216°
2026-04-22 03:02 24.32788 -100.40606 32342 ft 459 kts 216°
2026-04-22 03:03 24.27302 -100.44150 32343 ft 457 kts 216°
2026-04-22 03:03 24.21816 -100.47691 32345 ft 458 kts 216°
2026-04-22 03:04 24.16318 -100.51237 32342 ft 457 kts 216°
2026-04-22 03:04 24.10796 -100.54795 32348 ft 462 kts 216°
2026-04-22 03:05 24.05294 -100.58334 32349 ft 460 kts 216°
2026-04-22 03:05 23.99766 -100.61889 32355 ft 460 kts 216°
2026-04-22 03:06 23.94220 -100.65451 32358 ft 461 kts 216°
2026-04-22 03:06 23.88715 -100.68983 32371 ft 461 kts 216°
2026-04-22 03:07 23.83178 -100.72533 32372 ft 463 kts 216°
2026-04-22 03:07 23.77624 -100.76089 32354 ft 460 kts 216°
2026-04-22 03:08 23.72092 -100.79628 32343 ft 461 kts 216°
2026-04-22 03:08 23.66550 -100.83170 32340 ft 460 kts 216°
2026-04-22 03:09 23.61008 -100.86709 32343 ft 463 kts 216°
2026-04-22 03:09 23.55441 -100.90259 32347 ft 461 kts 215°
2026-04-22 03:10 23.49966 -100.93919 32353 ft 458 kts 220°
2026-04-22 03:10 23.44823 -100.97998 32354 ft 458 kts 220°
2026-04-22 03:11 23.39658 -101.02108 32371 ft 460 kts 220°
2026-04-22 03:11 23.34507 -101.06197 32388 ft 459 kts 220°
2026-04-22 03:12 23.29353 -101.10282 32395 ft 457 kts 220°
2026-04-22 03:12 23.21631 -101.16393 32400 ft 457 kts 220°
2026-04-22 03:13 23.16485 -101.20461 32408 ft 458 kts 220°
2026-04-22 03:13 23.11353 -101.24513 32418 ft 457 kts 220°
2026-04-22 03:14 23.06228 -101.28554 32425 ft 456 kts 220°
2026-04-22 03:14 23.01060 -101.32626 32424 ft 458 kts 220°
2026-04-22 03:15 22.95919 -101.36674 32414 ft 458 kts 220°
2026-04-22 03:15 22.90752 -101.40738 32401 ft 459 kts 220°
2026-04-22 03:16 22.85600 -101.44785 32398 ft 457 kts 220°
2026-04-22 03:16 22.80439 -101.48837 32396 ft 458 kts 220°
2026-04-22 03:17 22.75259 -101.52897 32407 ft 456 kts 220°
2026-04-22 03:17 22.70087 -101.56950 32416 ft 460 kts 220°
2026-04-22 03:18 22.64936 -101.60981 32421 ft 456 kts 220°
2026-04-22 03:18 22.59770 -101.65021 32424 ft 459 kts 220°
2026-04-22 03:19 22.54618 -101.69044 32440 ft 457 kts 220°
2026-04-22 03:19 22.49432 -101.73093 32446 ft 459 kts 220°
2026-04-22 03:20 22.44245 -101.77137 32445 ft 459 kts 220°
2026-04-22 03:20 22.39057 -101.81178 32447 ft 459 kts 220°
2026-04-22 03:21 22.33891 -101.85198 32443 ft 459 kts 219°
2026-04-22 03:21 22.28678 -101.89251 32446 ft 459 kts 220°
2026-04-22 03:22 22.23512 -101.93264 32440 ft 458 kts 220°
2026-04-22 03:22 22.18310 -101.97302 32435 ft 459 kts 220°
2026-04-22 03:23 22.13155 -102.01298 32430 ft 459 kts 220°
2026-04-22 03:23 22.07959 -102.05322 32426 ft 458 kts 220°
2026-04-22 03:24 22.02781 -102.09330 32420 ft 459 kts 219°
2026-04-22 03:24 21.97604 -102.13333 32412 ft 459 kts 219°
2026-04-22 03:25 21.92281 -102.17265 32407 ft 462 kts 217°
2026-04-22 03:25 21.86876 -102.20996 32394 ft 462 kts 217°
2026-04-22 03:26 21.81465 -102.24744 32365 ft 464 kts 217°
2026-04-22 03:26 21.76011 -102.28451 32339 ft 468 kts 211°
2026-04-22 03:27 21.72890 -102.29630 32315 ft 478 kts 195°
2026-04-22 03:27 21.69570 -102.29861 32280 ft 485 kts 180°
2026-04-22 03:27 21.66269 -102.29115 32271 ft 482 kts 164°
2026-04-22 03:27 21.63315 -102.27460 32269 ft 484 kts 149°
2026-04-22 03:28 21.57911 -102.22952 32189 ft 489 kts 145°
2026-04-22 03:28 21.55285 -102.20679 31691 ft 487 kts 145°
2026-04-22 03:28 21.52641 -102.18402 30708 ft 493 kts 145°
2026-04-22 03:29 21.49939 -102.16106 29644 ft 501 kts 145°
2026-04-22 03:29 21.47170 -102.13776 28988 ft 498 kts 145°
2026-04-22 03:29 21.44467 -102.11520 28623 ft 489 kts 145°
2026-04-22 03:29 21.41805 -102.09307 28237 ft 481 kts 145°
2026-04-22 03:30 21.39191 -102.07139 27731 ft 477 kts 145°
2026-04-22 03:30 21.36585 -102.04981 27164 ft 473 kts 145°
2026-04-22 03:30 21.33960 -102.02860 26608 ft 468 kts 149°
2026-04-22 03:30 21.31138 -102.01131 26055 ft 461 kts 158°
2026-04-22 03:31 21.28134 -102.00075 25501 ft 450 kts 174°
2026-04-22 03:31 21.25096 -102.00000 25132 ft 435 kts 192°
2026-04-22 03:31 21.22219 -102.00887 24867 ft 431 kts 209°
2026-04-22 03:31 21.19714 -102.02646 24608 ft 428 kts 223°
2026-04-22 03:32 21.17649 -102.04859 24412 ft 419 kts 233°
2026-04-22 03:32 21.15960 -102.07392 24400 ft 413 kts 242°
2026-04-22 03:32 21.14693 -102.10119 24398 ft 412 kts 250°
2026-04-22 03:32 21.13816 -102.13045 24400 ft 411 kts 257°
2026-04-22 03:33 21.13096 -102.15987 24401 ft 410 kts 257°
2026-04-22 03:33 21.12378 -102.18950 24402 ft 409 kts 257°
2026-04-22 03:33 21.11674 -102.21851 24318 ft 403 kts 257°
2026-04-22 03:33 21.10968 -102.24759 23818 ft 400 kts 257°
2026-04-22 03:34 21.10275 -102.27612 23049 ft 403 kts 257°
2026-04-22 03:34 21.09566 -102.30532 22381 ft 403 kts 257°
2026-04-22 03:34 21.08863 -102.33421 21859 ft 399 kts 257°
2026-04-22 03:34 21.08172 -102.36259 21318 ft 397 kts 257°
2026-04-22 03:35 21.07473 -102.39129 20758 ft 395 kts 257°
2026-04-22 03:35 21.06792 -102.41920 20217 ft 393 kts 256°
2026-04-22 03:35 21.06105 -102.44737 19641 ft 392 kts 256°
2026-04-22 03:35 21.05420 -102.47543 19065 ft 391 kts 256°
2026-04-22 03:36 21.04731 -102.50360 18560 ft 388 kts 256°
2026-04-22 03:36 21.04048 -102.53155 18037 ft 386 kts 256°
2026-04-22 03:36 21.03376 -102.55898 17512 ft 384 kts 256°
2026-04-22 03:36 21.02688 -102.58659 16991 ft 382 kts 254°
2026-04-22 03:37 21.01689 -102.61297 16467 ft 382 kts 244°
2026-04-22 03:37 21.00285 -102.63648 16053 ft 379 kts 233°
2026-04-22 03:37 20.98472 -102.65708 15763 ft 383 kts 222°
2026-04-22 03:37 20.96315 -102.67406 15484 ft 383 kts 212°
2026-04-22 03:38 20.94007 -102.68838 15215 ft 382 kts 210°
2026-04-22 03:38 20.91695 -102.70245 14935 ft 381 kts 210°
2026-04-22 03:38 20.89384 -102.71653 14659 ft 380 kts 210°
2026-04-22 03:38 20.87100 -102.73043 14374 ft 379 kts 210°
2026-04-22 03:39 20.84825 -102.74429 14032 ft 375 kts 210°
2026-04-22 03:39 20.82531 -102.75823 13492 ft 375 kts 210°
2026-04-22 03:39 20.80283 -102.77190 12926 ft 376 kts 210°
2026-04-22 03:39 20.77991 -102.78583 12494 ft 373 kts 210°
2026-04-22 03:40 20.75751 -102.79943 12114 ft 367 kts 210°
2026-04-22 03:40 20.73562 -102.81272 11686 ft 364 kts 210°
2026-04-22 03:40 20.71346 -102.82617 11228 ft 362 kts 211°
2026-04-22 03:40 20.69182 -102.83930 11100 ft 349 kts 210°
2026-04-22 03:41 20.67111 -102.85186 11033 ft 334 kts 211°
2026-04-22 03:41 20.65138 -102.86382 10996 ft 320 kts 211°
2026-04-22 03:41 20.63245 -102.87529 10970 ft 306 kts 211°
2026-04-22 03:41 20.61446 -102.88618 10942 ft 292 kts 211°
2026-04-22 03:42 20.59697 -102.89677 10910 ft 278 kts 211°
2026-04-22 03:42 20.58055 -102.90672 10885 ft 264 kts 211°
2026-04-22 03:42 20.56507 -102.91608 10851 ft 250 kts 211°
2026-04-22 03:42 20.55026 -102.92504 10815 ft 236 kts 211°
2026-04-22 03:43 20.53633 -102.93347 10682 ft 228 kts 211°
2026-04-22 03:43 20.52243 -102.94189 10398 ft 227 kts 211°
2026-04-22 03:43 20.50871 -102.95019 10122 ft 226 kts 212°
2026-04-22 03:43 20.49502 -102.95847 9866 ft 224 kts 212°
2026-04-22 03:44 20.48152 -102.96664 9605 ft 223 kts 212°
2026-04-22 03:44 20.46804 -102.97482 9339 ft 221 kts 212°
2026-04-22 03:44 20.45479 -102.98283 9151 ft 216 kts 212°
2026-04-22 03:44 20.44148 -102.99089 9122 ft 220 kts 212°
2026-04-22 03:45 20.42811 -102.99898 9114 ft 220 kts 212°
2026-04-22 03:45 20.41521 -103.00768 9098 ft 218 kts 227°
2026-04-22 03:45 20.40714 -103.02096 9105 ft 215 kts 252°
2026-04-22 03:45 20.40608 -103.03649 9056 ft 214 kts 284°
2026-04-22 03:46 20.41115 -103.05132 8881 ft 213 kts 293°
2026-04-22 03:46 20.41719 -103.06564 8816 ft 210 kts 294°
2026-04-22 03:46 20.42328 -103.07965 8803 ft 208 kts 294°
2026-04-22 03:46 20.42931 -103.09342 8573 ft 201 kts 294°
2026-04-22 03:47 20.43512 -103.10682 8367 ft 191 kts 294°
2026-04-22 03:47 20.44041 -103.11916 8160 ft 179 kts 294°
2026-04-22 03:47 20.44546 -103.13094 7975 ft 174 kts 294°
2026-04-22 03:47 20.45043 -103.14265 7826 ft 173 kts 294°
2026-04-22 03:48 20.45543 -103.15445 7670 ft 175 kts 294°
2026-04-22 03:48 20.46045 -103.16631 7501 ft 176 kts 294°
2026-04-22 03:48 20.46551 -103.17825 7298 ft 177 kts 294°
2026-04-22 03:48 20.47056 -103.19010 7035 ft 176 kts 294°
2026-04-22 03:49 20.47554 -103.20189 6782 ft 174 kts 293°
2026-04-22 03:49 20.48050 -103.21359 6537 ft 172 kts 293°
2026-04-22 03:49 20.48539 -103.22512 6315 ft 166 kts 292°
2026-04-22 03:49 20.49008 -103.23621 6110 ft 162 kts 292°
2026-04-22 03:50 20.49467 -103.24706 5909 ft 160 kts 292°
2026-04-22 03:50 20.49928 -103.25784 5713 ft 160 kts 293°
2026-04-22 03:50 20.50389 -103.26868 5513 ft 161 kts 292°
2026-04-22 03:50 20.50849 -103.27939 5345 ft 158 kts 292°
2026-04-22 03:51 20.51299 -103.29021 5143 ft 158 kts 292°
2026-04-22 03:51 20.51740 -103.30046 5042 ft 139 kts 291°
2026-04-22 03:51 20.52052 -103.30809 5043 ft 85 kts 295°
2026-04-22 03:51 20.52224 -103.31215 5043 ft 43 kts 294°
2026-04-22 03:52 20.52312 -103.31405 5044 ft 21 kts 304°
2026-04-22 03:52 20.52409 -103.31516 5044 ft 18 kts 321°
2026-04-22 03:52 20.52497 -103.31583 5044 ft 9 kts 329°
2026-04-22 03:52 20.52558 -103.31589 5044 ft 9 kts 17°
2026-04-22 03:53 20.52625 -103.31561 5044 ft 11 kts 24°
2026-04-22 03:53 20.52700 -103.31525 5043 ft 11 kts 25°
2026-04-22 03:53 20.52751 -103.31500 5042 ft 5 kts 26°
2026-04-22 03:53 20.52764 -103.31460 5042 ft 7 kts 109°
2026-04-22 03:54 20.52739 -103.31396 5042 ft 10 kts 112°
2026-04-22 03:54 20.52704 -103.31311 5041 ft 13 kts 115°
2026-04-22 03:54 20.52662 -103.31213 5041 ft 15 kts 114°
2026-04-22 03:54 20.52611 -103.31091 5040 ft 20 kts 114°
2026-04-22 03:55 20.52547 -103.30937 5039 ft 24 kts 114°
2026-04-22 03:55 20.52476 -103.30770 5037 ft 24 kts 114°
2026-04-22 03:55 20.52409 -103.30608 5037 ft 23 kts 114°
2026-04-22 03:55 20.52342 -103.30450 5037 ft 23 kts 114°
2026-04-22 03:56 20.52276 -103.30293 5037 ft 22 kts 114°
2026-04-22 03:56 20.52215 -103.30148 5037 ft 20 kts 114°
2026-04-22 03:56 20.52160 -103.30016 5037 ft 18 kts 114°
2026-04-22 03:56 20.52108 -103.29896 5037 ft 16 kts 114°
2026-04-22 03:57 20.52083 -103.29835 5037 ft 4 kts 104°
2026-04-22 03:57 20.52094 -103.29803 5037 ft 5 kts 37°
2026-04-22 03:57 20.52136 -103.29787 5037 ft 7 kts 18°
2026-04-22 03:57 20.52190 -103.29768 5036 ft 9 kts 18°
2026-04-22 03:58 20.52218 -103.29738 5036 ft 6 kts 85°
2026-04-22 03:58 20.52206 -103.29696 5036 ft 3 kts 110°
2026-04-22 03:58 20.52192 -103.29668 5036 ft 4 kts 142°
2026-04-22 03:58 20.52163 -103.29665 5037 ft 4 kts 192°
2026-04-22 03:59 20.52128 -103.29677 5037 ft 5 kts 199°
2026-04-22 03:59 20.52117 -103.29681 5037 ft 0 kts 199°